Regional Weather Roundup
Issued by NWS

Home | Current Version | Previous Version | Graphics & Text | Print | Product List | Glossary On
Versions: 1 2 3 4 5 6 7 8 9 10 11 12 13 14 15 16 17 18 19 20 21 22 23 24 25 26 27 28 29 30 31 32 33 34 35 36 37 38 39 40 41 42 43 44 45 46 47 48 49 50
000
ASUS45 KCYS 250910
RWRWY

WYOMING REGIONAL WEATHER ROUNDUP
NATIONAL WEATHER SERVICE CHEYENNE WY
300 AM MDT FRI JUL 25 2014

NOTE:  "FAIR" INDICATES FEW OR NO CLOUDS BELOW 12,000 FEET
WITH NO SIGNIFICANT WEATHER AND/OR OBSTRUCTIONS TO VISIBILITY.

WYZ001-251000-
YELLOWSTONE NATIONAL PARK

CITY           SKY/WX    TMP DP  RH WIND       PRES   REMARKS
LK YELLOWSTONE   N/A     34  24  67 NW3       30.26F
W YELLOWSTONE  NOT AVBL

$$
WYZ002>013-054>058-071-098>099-251000-
NORTHERN WYOMING

CITY           SKY/WX    TMP DP  RH WIND       PRES   REMARKS
JACKSON        CLEAR     41  28  60 NE7       30.18S
CODY           NOT AVBL
GREYBULL       CLEAR     66  43  43 W8        29.94R
WORLAND        CLEAR     60  27  28 W3        29.95R
SHERIDAN       CLEAR     55  49  80 CALM      30.01S
BUFFALO        CLEAR     55  46  71 W5        30.07F
GILLETTE       CLEAR     54  47  77 NW3       30.02S
HULETT         FAIR      59  46  63 MISG      30.02
NEWCASTLE      FAIR      66  54  63 N13G22    29.92

$$
WYZ014>020-022>026-101>103-251000-
CENTRAL WYOMING

CITY           SKY/WX    TMP DP  RH WIND       PRES   REMARKS
BIG PINEY      CLEAR     49  26  41 N12       30.22S
PINEDALE       SUNNY     43  36  75 W8        30.22S
DUBOIS         FAIR      46  18  31 NW20G26   30.17F
LANDER         CLEAR     63  21  20 S7        30.06R
RIVERTON       CLEAR     62  21  20 W5        30.06R
CASPER         CLEAR     62  48  60 E6        30.09S
DOUGLAS        CLEAR     62  52  69 NW13      30.06R

$$
WYZ021-027>030-104>119-251000-
SOUTHERN WYOMING

CITY           SKY/WX    TMP DP  RH WIND       PRES   REMARKS
EVANSTON       PTCLDY    60  36  40 N7        30.22S
KEMMERER       SUNNY     52  32  46 NW10      30.23S
FORT BRIDGER   FAIR      64  32  29 CALM      30.24S
ROCK SPRINGS   CLEAR     64  24  21 S6        30.19S
DIXON          FAIR      70  46  42 S12G17    30.22F
RAWLINS        CLEAR     63  43  48 S3        30.19S
SARATOGA       FAIR      59  43  55 S7        30.22F
LARAMIE        CLEAR     61  45  55 CALM      30.22R
CHEYENNE       CLEAR     68  48  48 W14G21    30.10F
TORRINGTON     CLEAR     71  47  42 W9        29.93R
PINE BLUFFS    FAIR      61  52  72 SW5       30.03F

$$



USA.gov is the U.S. government's official web portal to all federal, state and local government web resources and services.